PSLV R/B, 46915

Orbit data source: Space-Track

PSLV R/B, 46915 is space debris in LEO originally from a launch on Sat, 07 Nov 2020 UTC launched from the Sirharikota (SRI). Debris objects in space refer to the collection of defunct objects orbiting the Earth. Examples of debris include non-operational satellites, rocket bodies, and fragments generated from explosions, collisions, or faulty payload assembly.

Loading next visibility...
Identifier
46915, 2020-081L
Orbit
LEO
Country
Flag of ININ / IND
Related business
Manufacturer
VSSC/LPSC
Mission
Spacecraft
Bus & Motor
PS-4DL, Unknown motor
Mass
920 kg wet, 920 kg dry
Launch date (UTC)
2020-11-07 (5 years ago)
Launch vehicle
Unknown
Launch site
Sirharikota (SRI)
Object type
Payload
Rocket body
Debris
Shape & HBR
Cyl + Cyl + 2 Nozzle, 1.6 m
Radar Cross Section
3.727 m², Large (>1 m²)

Expand to show TLE details & history
Last TLE update: 22 hours ago

TLE from 22 hours ago
0 PSLV R/B
1 46915U 20081L   26037.18250909  .00017198  00000-0  49254-3 0  9991
2 46915  36.8477 339.6053 0025741 236.7215 123.1070 15.34867238290929
Epoch: 2026-02-06T04:22Z
TLE epoch observation values (Epoch: 2026-02-06T04:22:48.785Z)
Latitude
0.00003°
Longitude
137.57801°
Altitude
470.059 km
Speed
7.628 km/s
True Right ascension
22h 38m 25s
True Declination
0° 00' 00"
Sunlit
Object was in daylight at epoch
Visualization orbit readout
Latitude
Unknown
Longitude
Unknown
Altitude
Unknown
Speed
Unknown
Apparent Right ascension
Unknown
Apparent Declination
Unknown
Sunlit
N/A
Visualization observer readout
Local Sidereal Time
04:04:40
Azimuth
Unknown
Elevation
Unknown
Doppler factor
Unknown
Orbital elements
Apogee altitude
481.899 km
Perigee altitude
446.673 km
Semi-major axis
6,842.423 km
Eccentricity
0.00257
Inclination
36.8477°
RAAN
339.6053°
Arg. of periapsis
236.7215°
True anomaly
123.35365°
Mean anomaly
123.107°
Eccentric anomaly
123.23037°
Mean motion
3.83467 °/min
Orbital period
93.88 mins
BSTAR
0.00049254
Loading maneuver chart data...
Computing Atmospheric mass density...
Loading historical data...
Loading historical data...
Loading historical data...
Loading historical data...
Loading historical data...
Loading historical data...
Loading historical data...

Documentation

Showing up to 5 results
|